Temp
-12 -13 -13 -14 -14 -14 -14 -13 -13 -13 -13 -13 -12 -12 -12 -12 -12 -12 -12 -12 -12 -12 -12 -12 -12 -12 -13 -13 -13 -13 -13 -13 -13 -13 -13 -13 -13 -13 -14 -14 -14 -14
-13 -13 -13 -13 -14 -14 -14 -14 -14 -13 -13 -13 -12 -12 -13 -12 -12 -13 -12 -12 -12 -12 -12 -12 -12 -12 -12 -13 -13 -13 -13 -13 -13 -13 -13 -13 -13 -13 -14 -14 -14 -14
-13 -13 -13 -13 -14 -14 -14 -14 -14 -14 -13 -13 -13 -12 -13 -13 -12 -13 -13 -12 -12 -12 -12 -12 -12 -12 -13 -13 -13 -13 -13 -13 -14 -13 -13 -13 -13 -13 -14 -14 -14 -14
-13 -13 -13 -13 -14 -14 -14 -14 -14 -14 -14 -13 -13 -13 -13 -13 -13 -13 -13 -12 -12 -12 -12 -12 -12 -13 -13 -13 -13 -13 -13 -14 -14 -14 -14 -13 -13 -13 -14 -14 -14 -14
-13 -13 -14 -14 -14 -14 -14 -14 -14 -14 -14 -13 -13 -13 -13 -13 -13 -13 -13 -12 -12 -12 -12 -12 -12 -13 -13 -13 -13 -13 -13 -14 -14 -14 -14 -14 -14 -14 -14 -14 -14 -14
-13 -13 -14 -14 -14 -14 -14 -14 -14 -14 -14 -14 -13 -13 -13 -13 -13 -13 -13 -13 -12 -12 -12 -13 -13 -13 -13 -13 -13 -13 -13 -14 -14 -14 -14 -14 -14 -14 -14 -14 -14 -14
-13 -13 -14 -14 -14 -14 -14 -14 -14 -14 -14 -14 -13 -13 -12 -13 -13 -13 -13 -13 -12 -12 -13 -13 -13 -13 -13 -13 -13 -13 -13 -14 -14 -14 -14 -14 -14 -14 -14 -14 -14 -14
-13 -13 -14 -14 -14 -14 -14 -14 -14 -14 -14 -13 -13 -13 -12 -13 -13 -13 -13 -13 -12 -12 -13 -13 -13 -13 -13 -13 -13 -13 -14 -14 -14 -14 -14 -14 -14 -14 -14 -14 -14 -14
-13 -13 -14 -14 -14 -14 -14 -14 -14 -14 -14 -13 -13 -13 -12 -13 -13 -13 -13 -13 -13 -13 -13 -13 -13 -13 -13 -13 -13 -14 -14 -14 -14 -14 -14 -14 -14 -14 -14 -14 -14 -14
-13 -13 -14 -14 -14 -14 -14 -14 -14 -14 -14 -14 -13 -13 -12 -13 -13 -13 -13 -13 -13 -13 -13 -13 -13 -13 -13 -13 -13 -14 -14 -14 -14 -14 -14 -14 -14 -14 -14 -14 -14 -14
-13 -13 -13 -14 -14 -14 -14 -14 -14 -14 -14 -14 -13 -13 -13 -13 -13 -13 -13 -13 -13 -13 -13 -13 -13 -13 -13 -13 -14 -14 -14 -14 -14 -14 -14 -14 -14 -14 -14 -14 -14 -14
-13 -13 -13 -14 -14 -14 -14 -15 -14 -14 -14 -14 -13 -13 -13 -13 -13 -13 -13 -13 -13 -13 -13 -13 -13 -13 -13 -13 -14 -14 -14 -14 -14 -14 -14 -14 -14 -14 -14 -14 -14 -14
-13 -13 -14 -14 -14 -14 -14 -14 -14 -14 -14 -14 -14 -13 -13 -13 -13 -13 -13 -13 -13 -13 -13 -13 -13 -13 -13 -13 -13 -14 -14 -14 -14 -14 -14 -14 -14 -14 -14 -14 -14 -14
-13 -14 -14 -14 -14 -14 -14 -14 -15 -14 -14 -14 -14 -13 -13 -13 -13 -13 -13 -13 -13 -13 -13 -13 -13 -13 -13 -13 -13 -14 -14 -14 -14 -14 -14 -14 -14 -14 -14 -14 -14 -14
-13 -14 -14 -14 -14 -14 -14 -14 -14 -14 -14 -14 -14 -13 -13 -14 -13 -13 -13 -13 -13 -13 -13 -13 -13 -13 -13 -13 -13 -14 -14 -14 -14 -14 -14 -14 -14 -14 -14 -14 -14 -14
-14 -14 -14 -14 -14 -14 -14 -15 -14 -14 -13 -14 -14 -13 -14 -14 -13 -13 -13 -13 -13 -13 -13 -13 -13 -13 -13 -13 -13 -14 -14 -14 -14 -14 -14 -14 -14 -14 -14 -14 -15 -15
-14 -14 -14 -14 -14 -14 -15 -15 -14 -14 -13 -13 -14 -14 -14 -13 -13 -13 -13 -13 -13 -13 -13 -13 -13 -13 -13 -13 -13 -14 -14 -14 -14 -14 -14 -14 -14 -14 -14 -14 -15 -15
-14 -14 -14 -14 -14 -15 -15 -14 -14 -14 -13 -13 -14 -14 -14 -14 -13 -13 -13 -13 -13 -13 -13 -13 -13 -13 -13 -13 -13 -14 -14 -14 -14 -14 -14 -14 -14 -14 -14 -14 -15 -15
-14 -14 -14 -14 -14 -15 -15 -14 -14 -14 -13 -14 -14 -14 -13 -14 -13 -13 -13 -13 -13 -13 -13 -13 -13 -13 -13 -13 -14 -14 -14 -14 -14 -14 -14 -14 -14 -14 -14 -15 -15 -15
-14 -14 -14 -14 -14 -15 -14 -14 -14 -13 -13 -14 -14 -14 -13 -13 -13 -13 -13 -13 -13 -13 -13 -13 -13 -13 -13 -13 -14 -14 -14 -14 -14 -14 -14 -14 -14 -14 -14 -14 -15 -15
-13 -14 -14 -14 -14 -14 -14 -14 -14 -13 -13 -14 -14 -14 -13 -13 -13 -13 -13 -13 -13 -13 -13 -13 -13 -13 -13 -13 -14 -14 -14 -14 -14 -14 -14 -14 -14 -14 -14 -14 -15 -15
-13 -14 -14 -14 -14 -14 -14 -14 -13 -13 -14 -14 -14 -13 -13 -13 -13 -13 -13 -13 -13 -13 -13 -13 -13 -13 -13 -13 -14 -14 -14 -14 -14 -14 -14 -14 -14 -15 -15 -15 -15 -15
-13 -13 -13 -14 -14 -14 -14 -13 -13 -13 -14 -14 -14 -13 -13 -13 -13 -13 -13 -13 -13 -13 -13 -13 -13 -13 -13 -13 -14 -14 -14 -14 -14 -14 -14 -14 -15 -15 -15 -15 -15 -15
-13 -13 -13 -13 -14 -14 -14 -13 -13 -14 -14 -14 -14 -13 -13 -13 -13 -13 -13 -13 -13 -13 -13 -13 -13 -13 -13 -13 -13 -14 -14 -14 -14 -14 -14 -15 -15 -15 -15 -15 -15 -15
-13 -13 -13 -13 -13 -13 -13 -13 -14 -14 -14 -14 -14 -13 -13 -13 -13 -13 -13 -13 -13 -13 -13 -13 -13 -13 -13 -13 -13 -13 -14 -14 -14 -14 -14 -14 -15 -15 -15 -15 -15 -15
-13 -13 -13 -13 -13 -13 -13 -13 -14 -14 -14 -14 -14 -13 -13 -13 -13 -13 -13 -13 -13 -13 -13 -13 -13 -13 -13 -13 -13 -14 -14 -14 -14 -14 -14 -14 -14 -14 -15 -15 -15 -15
Height
5817 5818 5818 5819 5820 5820 5821 5821 5820 5820 5821 5822 5822 5822 5821 5821 5822 5822 5821 5820 5820 5819 5819 5819 5818 5818 5818 5818 5818 5817 5817 5817 5817 5816 5816 5815 5814 5813 5812 5812 5811 5811
5814 5815 5815 5816 5817 5817 5817 5817 5817 5816 5817 5818 5819 5819 5818 5819 5819 5819 5818 5818 5818 5817 5817 5816 5816 5816 5816 5815 5815 5815 5815 5815 5814 5814 5813 5813 5812 5811 5810 5809 5809 5808
5810 5811 5812 5813 5814 5814 5814 5814 5813 5813 5814 5815 5816 5816 5816 5816 5817 5816 5816 5815 5815 5815 5814 5814 5814 5813 5813 5813 5813 5813 5812 5812 5812 5811 5811 5810 5809 5809 5808 5807 5806 5805
5806 5808 5809 5810 5810 5810 5810 5810 5810 5810 5811 5811 5813 5813 5813 5813 5814 5814 5813 5813 5812 5812 5812 5811 5811 5811 5810 5810 5810 5810 5809 5809 5809 5809 5808 5808 5807 5806 5805 5805 5804 5803
5802 5804 5805 5806 5807 5807 5807 5807 5807 5807 5807 5808 5809 5810 5810 5810 5811 5811 5810 5810 5809 5809 5809 5809 5808 5808 5807 5807 5807 5807 5807 5807 5806 5806 5806 5805 5805 5804 5803 5802 5802 5801
5797 5800 5802 5803 5803 5803 5803 5804 5803 5803 5804 5804 5805 5806 5807 5807 5807 5808 5807 5807 5807 5806 5806 5806 5805 5805 5805 5805 5805 5805 5804 5804 5804 5804 5803 5803 5802 5802 5801 5800 5799 5799
5793 5796 5798 5799 5799 5799 5800 5800 5800 5800 5800 5801 5802 5803 5803 5804 5804 5804 5804 5804 5804 5804 5803 5803 5803 5802 5802 5802 5802 5802 5802 5801 5801 5801 5801 5800 5800 5799 5799 5798 5797 5796
5789 5791 5793 5794 5795 5796 5796 5796 5796 5796 5797 5797 5798 5799 5799 5800 5801 5801 5801 5801 5801 5801 5801 5800 5800 5800 5800 5800 5800 5799 5799 5799 5799 5798 5798 5798 5797 5797 5796 5795 5794 5793
5783 5786 5788 5789 5791 5792 5793 5793 5793 5793 5793 5794 5794 5795 5795 5796 5797 5798 5798 5798 5798 5798 5798 5798 5798 5797 5797 5797 5797 5797 5797 5796 5796 5796 5795 5795 5794 5794 5793 5792 5791 5790
5779 5782 5784 5785 5787 5788 5789 5789 5789 5789 5790 5790 5791 5791 5791 5792 5794 5794 5795 5795 5795 5794 5795 5795 5795 5795 5794 5794 5794 5794 5794 5794 5793 5793 5793 5792 5792 5791 5790 5789 5788 5787
5774 5777 5780 5782 5783 5784 5785 5786 5785 5785 5786 5786 5787 5787 5787 5789 5790 5790 5791 5792 5791 5791 5792 5792 5792 5792 5792 5791 5791 5791 5791 5791 5790 5790 5790 5789 5789 5788 5787 5786 5786 5785
5770 5773 5776 5778 5779 5780 5781 5781 5781 5781 5782 5782 5783 5783 5784 5785 5786 5787 5788 5788 5788 5788 5789 5789 5789 5789 5789 5788 5788 5788 5788 5788 5788 5787 5787 5786 5786 5785 5784 5784 5783 5782
5765 5769 5772 5774 5775 5776 5776 5776 5776 5777 5778 5779 5779 5779 5780 5781 5782 5783 5784 5784 5784 5784 5785 5786 5786 5786 5786 5785 5785 5785 5785 5785 5785 5784 5784 5783 5783 5782 5781 5781 5780 5780
5762 5765 5767 5768 5770 5771 5771 5771 5772 5772 5774 5775 5775 5775 5777 5777 5778 5779 5780 5780 5781 5781 5782 5783 5783 5783 5783 5782 5782 5781 5782 5782 5781 5781 5780 5780 5779 5779 5778 5778 5777 5777
5757 5759 5761 5763 5765 5766 5767 5767 5767 5768 5770 5771 5771 5772 5773 5773 5774 5775 5776 5776 5777 5778 5779 5780 5780 5780 5779 5779 5778 5778 5779 5778 5778 5778 5777 5777 5776 5776 5775 5775 5774 5773
5750 5753 5756 5758 5760 5761 5762 5762 5763 5764 5765 5767 5768 5768 5769 5769 5770 5771 5772 5772 5773 5774 5775 5776 5776 5776 5776 5775 5775 5775 5775 5775 5775 5774 5774 5773 5773 5772 5772 5771 5771 5770
5744 5747 5751 5753 5755 5756 5757 5757 5758 5759 5761 5763 5764 5764 5765 5766 5766 5766 5767 5768 5769 5770 5772 5772 5773 5773 5772 5772 5772 5772 5771 5772 5772 5771 5770 5770 5769 5769 5768 5768 5767 5767
5738 5742 5746 5747 5749 5751 5752 5753 5754 5755 5757 5759 5760 5760 5761 5762 5762 5762 5763 5764 5765 5767 5768 5769 5769 5769 5769 5768 5768 5768 5768 5768 5768 5767 5767 5766 5766 5765 5765 5764 5764 5763
5733 5737 5740 5742 5745 5746 5747 5748 5749 5750 5753 5755 5756 5756 5757 5758 5758 5758 5759 5760 5761 5762 5764 5765 5765 5765 5765 5765 5764 5765 5765 5765 5764 5764 5763 5763 5762 5762 5762 5761 5761 5760
5729 5732 5735 5738 5740 5741 5742 5743 5745 5747 5750 5751 5751 5752 5754 5754 5754 5754 5755 5756 5757 5758 5760 5761 5761 5761 5761 5761 5761 5761 5762 5761 5761 5760 5760 5760 5759 5759 5758 5758 5757 5757
5724 5727 5730 5733 5735 5736 5737 5739 5740 5743 5745 5746 5747 5748 5750 5750 5750 5750 5751 5752 5753 5754 5755 5756 5757 5757 5757 5757 5757 5758 5758 5758 5757 5757 5757 5757 5756 5756 5755 5755 5754 5754
5719 5721 5724 5727 5729 5731 5733 5735 5736 5739 5741 5742 5742 5744 5745 5746 5746 5746 5747 5748 5749 5750 5751 5752 5753 5753 5753 5754 5754 5754 5755 5754 5753 5753 5754 5753 5753 5752 5751 5751 5751 5750
5714 5716 5719 5722 5724 5727 5729 5731 5733 5735 5737 5738 5738 5739 5740 5742 5742 5742 5742 5744 5745 5746 5747 5748 5749 5749 5749 5750 5750 5750 5751 5750 5750 5750 5750 5750 5749 5748 5747 5747 5747 5746
5709 5711 5714 5717 5720 5723 5724 5727 5730 5732 5732 5733 5733 5734 5736 5738 5738 5737 5738 5739 5741 5742 5743 5744 5745 5745 5745 5746 5747 5747 5747 5747 5747 5747 5747 5746 5745 5744 5743 5743 5743 5743
5703 5706 5709 5713 5716 5718 5720 5724 5726 5727 5728 5728 5729 5730 5733 5734 5733 5733 5735 5736 5737 5738 5739 5740 5741 5740 5741 5742 5743 5743 5743 5743 5743 5743 5742 5741 5740 5740 5739 5738 5738 5738
5697 5701 5705 5708 5711 5714 5717 5720 5722 5722 5723 5724 5726 5727 5729 5730 5730 5730 5731 5732 5733 5733 5735 5736 5737 5736 5737 5738 5739 5739 5739 5739 5739 5739 5738 5737 5736 5735 5734 5734 5734 5734
Wind_Speed
38 37 36 33 31 31 34 35 36 37 36 34 32 30 30 30 27 26 26 25 24 23 23 23 22 21 21 20 19 18 18 19 20 20 20 20 21 21 22 23 24 25
38 38 38 36 32 32 33 34 36 37 36 35 33 30 30 30 27 26 27 26 25 23 23 22 22 21 21 21 20 18 18 18 19 20 20 20 21 21 22 23 24 25
40 39 39 36 34 33 32 34 37 37 37 36 34 30 30 30 28 26 27 27 26 24 23 22 22 22 21 21 20 18 17 18 19 20 20 20 21 21 22 23 24 25
42 40 38 37 35 34 34 36 37 37 37 37 35 31 31 30 28 26 27 28 27 25 23 23 22 22 22 21 19 18 17 18 19 20 20 21 21 21 22 23 23 24
44 42 40 38 37 36 36 37 38 38 38 38 36 33 30 30 28 26 27 29 29 26 24 23 23 22 22 21 19 18 18 18 19 20 20 21 21 22 22 23 23 23
46 44 41 39 39 38 39 39 40 40 39 38 38 34 30 29 28 27 28 30 30 27 24 23 23 22 22 21 19 19 18 18 19 20 20 21 21 22 22 23 23 23
47 44 41 40 40 40 40 40 42 42 40 40 40 36 31 29 29 28 28 31 31 28 24 24 24 23 22 21 19 19 18 18 19 20 20 21 21 22 22 23 23 23
48 44 42 42 42 41 40 41 43 43 42 41 41 37 32 30 30 29 29 31 33 29 25 24 24 23 22 21 20 19 18 18 19 20 20 21 21 22 23 23 23 23
48 45 44 45 44 41 40 41 43 43 43 43 42 39 34 31 30 31 30 32 34 31 26 24 24 24 22 20 19 19 18 18 19 20 20 20 21 22 23 23 23 23
49 47 46 46 44 42 41 40 42 43 43 44 42 40 37 32 31 32 31 32 35 33 28 25 24 24 22 20 19 19 19 19 19 19 20 20 21 22 23 23 23 23
51 49 48 46 44 43 41 40 42 45 44 44 43 41 38 34 32 33 31 32 35 34 29 25 24 24 22 20 19 19 19 20 19 19 20 20 22 22 23 24 24 24
52 51 47 45 44 44 41 40 44 46 45 45 44 42 39 35 33 34 32 33 36 35 30 26 24 24 23 20 19 19 20 20 20 19 20 21 22 23 23 24 24 24
54 50 46 45 45 44 42 43 46 47 46 45 44 42 38 35 34 34 33 34 36 35 31 26 25 25 23 21 20 20 20 21 20 20 20 21 22 23 24 24 24 25
52 48 45 46 46 44 44 46 48 48 46 44 42 39 35 34 34 34 34 35 36 35 31 27 25 25 23 22 21 20 20 21 21 20 21 22 23 23 24 24 25 25
50 46 45 46 46 45 46 48 48 48 45 42 39 36 34 34 35 35 35 36 36 36 32 27 26 25 24 23 22 20 20 21 21 21 22 23 24 24 24 25 25 25
50 48 46 45 45 46 47 48 48 47 44 39 36 35 34 35 36 36 36 36 36 36 32 28 27 26 25 23 22 21 21 22 22 22 23 24 25 25 25 25 25 25
51 49 47 46 46 46 47 47 47 46 43 37 35 35 35 35 36 37 37 37 37 36 33 29 27 27 26 24 23 22 23 23 23 23 24 25 26 26 26 26 26 26
53 50 48 48 48 47 47 48 48 47 43 37 35 35 35 35 37 38 38 37 37 37 34 30 28 28 27 25 24 24 23 23 24 25 25 26 27 28 27 27 27 27
54 51 50 50 49 48 49 49 49 48 43 37 36 37 36 36 38 38 38 37 37 37 35 31 29 29 28 27 26 25 24 24 25 26 26 27 28 29 29 29 29 28
54 53 52 51 50 50 50 50 50 47 42 38 39 38 36 36 38 39 39 38 38 38 36 33 30 30 30 29 27 25 25 25 26 27 28 28 29 31 31 31 31 30
54 54 53 52 52 52 51 51 51 47 41 39 40 39 37 37 39 40 40 39 39 39 37 34 32 31 32 30 28 26 25 26 28 29 29 29 31 32 33 33 33 32
54 55 55 54 54 54 53 53 51 46 41 39 40 40 39 38 39 41 41 40 39 39 37 34 32 33 33 31 30 27 27 28 30 31 31 31 32 34 35 35 34 33
56 57 57 56 54 53 53 54 50 44 40 40 41 41 40 38 39 42 42 42 40 39 37 35 33 33 34 33 31 29 28 29 31 31 31 32 33 34 35 35 35 34
55 57 57 55 53 53 54 52 46 41 40 41 42 43 40 39 41 42 43 42 41 39 37 35 34 35 35 34 32 30 30 31 32 32 32 33 33 34 35 35 35 34
54 56 56 54 53 54 53 47 42 41 42 43 44 43 40 39 41 42 42 41 41 40 37 35 35 36 36 34 32 32 33 34 34 34 34 34 34 34 34 34 35 34
54 54 54 54 54 54 50 44 41 43 44 44 43 42 40 40 41 41 41 41 41 40 38 35 35 36 36 34 33 32 32 33 33 34 35 36 35 35 34 33 33 33
Wind_Direction
240 239 240 244 250 258 264 269 273 277 280 285 288 285 280 281 284 283 280 280 283 286 286 283 278 275 277 280 281 283 286 289 292 293 294 294 295 294 292 290 287 286
241 241 242 244 248 255 261 267 272 275 279 283 286 283 277 278 281 280 278 279 282 285 286 283 278 275 275 278 280 282 285 288 291 292 294 294 295 295 294 291 288 286
240 241 242 244 246 251 257 264 269 273 277 280 283 280 275 275 279 279 277 277 280 283 284 281 275 272 273 275 279 283 285 287 289 291 293 295 296 296 295 293 290 287
240 240 241 244 246 248 254 261 266 270 274 277 280 278 273 274 277 277 276 276 278 281 282 279 273 270 271 275 280 283 285 286 288 290 292 294 295 296 297 296 293 289
238 239 240 245 247 247 252 259 263 268 271 274 277 275 271 272 276 276 273 273 276 279 281 279 273 270 271 275 280 282 283 285 286 288 291 292 294 296 298 298 296 291
238 239 240 245 247 248 252 257 261 265 268 271 274 273 270 271 274 274 271 271 274 277 281 279 274 270 271 275 279 281 281 283 284 287 289 291 293 297 300 299 297 292
237 239 239 243 246 248 252 256 260 263 266 269 272 272 268 268 272 273 269 269 272 276 279 277 273 270 271 274 277 278 280 281 282 285 287 290 293 296 299 299 297 292
235 236 236 240 244 247 250 254 258 262 265 268 270 270 267 267 271 271 268 268 270 274 277 275 271 268 269 272 275 277 278 279 280 283 285 288 291 294 297 298 297 293
232 233 234 238 242 244 248 252 256 260 263 266 268 268 267 268 272 271 266 265 269 272 274 273 269 266 267 270 273 276 277 277 279 281 284 287 289 292 295 297 298 295
231 233 234 237 240 243 246 249 254 258 261 264 266 267 267 269 272 270 264 263 267 270 272 271 267 265 266 268 271 274 275 276 278 281 284 286 287 290 294 297 298 295
232 234 234 236 239 241 243 246 251 256 259 262 264 266 267 270 271 268 262 261 264 268 270 269 265 263 265 267 270 273 275 276 278 281 284 285 286 289 293 296 298 296
232 234 235 236 237 238 240 244 250 254 257 261 263 265 267 269 268 265 260 259 261 265 268 267 263 262 263 266 270 273 275 277 279 282 283 284 285 287 291 294 296 295
231 233 233 233 233 234 239 244 249 253 256 260 263 265 266 266 264 262 259 257 259 263 266 266 262 261 262 265 269 272 275 278 280 281 282 283 283 285 288 292 294 294
229 230 229 229 229 232 238 243 248 253 256 259 261 262 263 262 261 260 258 256 258 261 265 265 261 259 261 263 267 272 277 279 279 278 279 280 282 283 286 289 291 292
226 225 225 226 228 231 238 243 248 253 256 257 259 260 261 261 260 258 257 256 257 260 263 263 259 258 259 262 267 273 277 278 277 276 277 278 280 281 283 286 289 290
222 221 222 225 228 231 237 243 248 252 254 255 257 258 259 260 259 258 257 257 257 258 262 262 258 256 258 261 266 272 275 277 277 276 276 276 277 279 281 284 287 288
220 219 221 224 227 230 236 242 246 250 252 253 257 258 258 259 259 258 257 256 256 257 260 260 256 254 256 260 264 269 274 276 277 276 274 275 276 278 280 282 285 286
218 218 220 223 226 230 235 240 245 248 250 253 258 259 258 258 259 258 257 256 255 256 258 259 256 253 255 258 261 267 273 277 278 276 274 274 275 276 278 280 283 285
217 217 220 223 226 230 234 239 243 246 249 254 258 257 256 257 258 257 256 254 254 255 257 258 255 252 253 256 259 265 271 276 278 277 275 274 275 276 276 278 281 283
217 217 220 223 226 230 234 238 242 246 249 252 255 255 254 255 256 256 255 254 253 254 256 257 255 253 253 255 258 263 269 274 277 278 277 277 277 277 276 276 278 280
218 219 221 223 226 230 234 238 242 245 248 251 253 252 252 253 254 255 255 254 253 253 255 256 256 253 253 255 258 261 267 272 275 277 279 280 280 279 277 276 276 277
218 220 222 224 226 230 234 238 242 245 248 250 251 250 249 251 253 254 254 254 253 254 255 256 257 255 254 255 258 260 265 269 273 277 280 283 283 282 279 276 274 275
219 221 223 225 228 230 234 238 242 245 247 248 248 248 248 250 253 254 253 253 253 254 255 257 258 256 254 255 257 260 264 268 273 278 282 283 285 286 282 276 272 272
222 223 226 227 228 231 234 238 241 243 245 245 246 247 247 249 252 253 253 253 254 254 255 257 258 257 256 255 257 260 264 268 273 278 282 285 288 289 286 276 269 270
224 226 228 228 228 231 235 238 240 241 243 244 245 246 246 248 251 253 254 255 255 255 256 257 258 260 260 259 259 261 265 269 274 278 281 285 288 292 290 278 268 268
225 228 229 228 229 232 235 237 237 239 241 244 246 247 248 249 252 255 257 257 258 259 259 259 260 261 263 263 261 261 264 269 274 278 280 283 285 290 291 281 267 265